This is the latest recevied weather packets stored in our database for station/object DH4SBM. If no packets are shown the sender has not sent any weather packets the latest 10 day(s).
| Time | Temp. | Humidity | Pressure | Rain* | Wind** | Luminosity | Snow |
|---|---|---|---|---|---|---|---|
| 1787942389 | 22.22° C | 64% | 1014.1 hPa | 0 mm | - | 0 W/m² | - |
| 1787941788 | 22.78° C | 61% | 1013.7 hPa | 0 mm | - | 0 W/m² | - |
| 1787941188 | 22.78° C | 63% | 1013.3 hPa | 0 mm | - | 7 W/m² | - |
| 1787939988 | 22.78° C | 63% | 1013 hPa | 0 mm | - | 39 W/m² | - |
| 1787938187 | 23.33° C | 61% | 1012.8 hPa | 0 mm | - | 9 W/m² | - |
| 1787937587 | 23.33° C | 62% | 1012.6 hPa | 0 mm | - | 18 W/m² | - |
| 1787936989 | 23.33° C | 64% | 1012.3 hPa | 0 mm | - | 21 W/m² | - |
| 1787936387 | 23.33° C | 66% | 1012.2 hPa | 0 mm | - | 21 W/m² | - |
| 1787935787 | 23.33° C | 69% | 1012.4 hPa | 0 mm | - | 30 W/m² | - |
| 1787935187 | 23.33° C | 74% | 1012.2 hPa | 0 mm | - | 47 W/m² | - |
| 1787934586 | 23.33° C | 74% | 1012.1 hPa | 0 mm | - | 60 W/m² | - |
| 1787933986 | 23.89° C | 74% | 1012.2 hPa | 0 mm | - | 97 W/m² | - |
| 1787933388 | 23.89° C | 74% | 1011.9 hPa | 0 mm | - | 125 W/m² | - |
| 1787931587 | 23.33° C | 75% | 1012.2 hPa | 0 mm | - | 113 W/m² | - |
| 1787930986 | 23.89° C | 76% | 1012.3 hPa | 0 mm | - | 116 W/m² | - |
| 1787930386 | 23.89° C | 75% | 1012.3 hPa | 0 mm | - | 123 W/m² | - |
| 1787929786 | 23.89° C | 74% | 1012.3 hPa | 0 mm | - | 88 W/m² | - |
| 1787929188 | 23.89° C | 75% | 1012.5 hPa | 0 mm | - | 264 W/m² | - |
| 1787929024 | 23.89° C | 75% | 1012.5 hPa | 0 mm | - | 264 W/m² | - |
| 1787927823 | 23.33° C | 77% | 1012.7 hPa | 0 mm | - | 202 W/m² | - |
| 1787927223 | 23.33° C | 78% | 1013 hPa | 0 mm | - | 197 W/m² | - |
| 1787926623 | 23.33° C | 78% | 1012.9 hPa | 0 mm | - | 100 W/m² | - |
| 1787926023 | 23.33° C | 78% | 1013 hPa | 0 mm | - | 128 W/m² | - |
| 1787924823 | 23.33° C | 78% | 1012.8 hPa | 0 mm | - | 171 W/m² | - |
| 1787924222 | 23.33° C | 79% | 1013 hPa | 0 mm | - | 287 W/m² | - |
* Rain latest hour (hover to see other rain measurements)
** Current wind speed in m/s (hover to see current wind gust speed)